CW3847 La Orotava ES current weather conditions

sailwx.info

Wind from 058 at 1 knots gusting 5

Air temperature 15.0° C
Dewpoint 7.3° C

Last reported at 2017-Mar-23 10:00 UTC.
Time now 2017-Mar-23 10:42 UTC

Location: N 28°23' W 016°31'.
View on Google Maps.

See reports from other nearby stations

  
Tides and Currents Weather Stations Pressure Air Temp Water Temp Dewpoint Dewpoint Depression Visibility Wind Speed Wind Dir Waves Ship Positions
date/time (UTC)wind fromknots sea level pressurealtimeterstation pressurevisibilityair tempwater tempwave heightnotes
2017-Mar-23 10:00 058 1 gusting 5 15.0
2017-Mar-23 09:55 058 2 gusting 6 15.0
2017-Mar-23 09:50 077 2 gusting 6 15.0
2017-Mar-23 09:45 104 0 gusting 5 15.0
2017-Mar-23 09:40 105 0 gusting 3 15.0
2017-Mar-23 09:35 106 1 gusting 5 14.4
2017-Mar-23 09:30 109 2 gusting 6 14.4
2017-Mar-23 09:25 104 3 gusting 6 14.4
2017-Mar-23 09:20 101 3 gusting 6 14.4
2017-Mar-23 09:15 112 4 gusting 9 13.9
2017-Mar-23 09:10 113 3 gusting 9 13.3
2017-Mar-23 09:05 098 2 gusting 6 13.3
2017-Mar-23 09:00 065 2 gusting 6 13.3
2017-Mar-23 08:55 033 2 gusting 6 13.3
2017-Mar-23 08:50 045 1 gusting 4 13.3
2017-Mar-23 08:45 045 2 gusting 4 12.8
2017-Mar-23 08:40 045 3 gusting 8 13.3
2017-Mar-23 08:35 046 4 gusting 8 13.3
2017-Mar-23 08:30 046 5 gusting 9 13.3
2017-Mar-23 08:25 045 3 gusting 9 13.3
2017-Mar-23 08:20 063 2 gusting 6 13.3
2017-Mar-23 08:15 117 0 gusting 4 13.3
2017-Mar-23 08:10 152 1 gusting 6 13.3
2017-Mar-23 08:05 162 2 gusting 6 13.3
2017-Mar-23 08:00 167 3 gusting 6 12.8
2017-Mar-23 07:55 170 3 gusting 7 12.8
2017-Mar-23 07:50 170 4 gusting 7 12.8
2017-Mar-23 07:45 170 4 gusting 7 12.8
2017-Mar-23 07:40 161 4 gusting 7 12.8
2017-Mar-23 07:35 153 3 gusting 7 12.8
2017-Mar-23 07:30 158 3 gusting 6 12.8
2017-Mar-23 07:25 158 2 gusting 6 12.8
2017-Mar-23 07:20 157 2 gusting 5 12.8
2017-Mar-23 07:15 149 2 gusting 5 12.8
2017-Mar-23 07:10 093 1 gusting 3 12.8
2017-Mar-23 07:05 034 0 gusting 2 12.8
2017-Mar-23 07:00 029 0 gusting 2 12.8
2017-Mar-23 06:55 029 0 gusting 2 12.8
2017-Mar-23 06:50 025 1 gusting 4 12.8
2017-Mar-23 06:45 005 2 gusting 5 12.8
2017-Mar-23 06:40 329 2 gusting 5 12.8
2017-Mar-23 06:35 299 2 gusting 6 12.8
2017-Mar-23 06:30 189 2 gusting 6 12.8
2017-Mar-23 06:25 126 2 gusting 5 12.8
2017-Mar-23 06:20 082 1 gusting 5 12.8
2017-Mar-23 06:15 088 1 gusting 6 12.8
2017-Mar-23 06:10 103 2 gusting 6 12.8
2017-Mar-23 06:05 112 1 gusting 5 12.8
2017-Mar-23 06:00 112 0 gusting 3 12.8
2017-Mar-23 05:55 112 0 gusting 3 12.8
2017-Mar-23 05:50 112 1 gusting 3 12.8
2017-Mar-23 05:45 112 1 gusting 3 12.8
2017-Mar-23 05:40 104 1 gusting 6 12.8
2017-Mar-23 05:35 090 2 gusting 6 12.8
2017-Mar-23 05:30 077 1 gusting 6 12.8
2017-Mar-23 05:25 050 2 gusting 6 12.8
2017-Mar-23 05:20 032 2 gusting 5 12.8
2017-Mar-23 05:15 042 1 gusting 5 12.8
2017-Mar-23 05:10 044 1 gusting 4 12.8
2017-Mar-23 05:05 044 1 gusting 3 12.8
2017-Mar-23 05:00 043 0 gusting 4 12.8
2017-Mar-23 04:55 049 2 gusting 5 13.3
2017-Mar-23 04:50 074 2 gusting 5 13.3
2017-Mar-23 04:45 123 2 gusting 5 13.3
2017-Mar-23 04:40 150 1 gusting 5 13.3
2017-Mar-23 04:35 167 1 gusting 5 13.3
2017-Mar-23 04:30 160 3 gusting 7 13.3
2017-Mar-23 04:25 154 4 gusting 7 13.3
2017-Mar-23 04:20 143 3 gusting 6 13.3
2017-Mar-23 04:15 112 2 gusting 6 13.3
2017-Mar-23 04:10 096 2 gusting 6 13.3
2017-Mar-23 04:05 118 2 gusting 6 13.3
2017-Mar-23 04:00 160 2 gusting 6 13.3
2017-Mar-23 03:55 142 2 gusting 6 13.3
2017-Mar-23 03:50 107 2 gusting 5 13.3
2017-Mar-23 03:45 104 1 gusting 5 13.3
2017-Mar-23 03:40 104 1 gusting 6 13.3
2017-Mar-23 03:35 104 1 gusting 6 13.3
2017-Mar-23 03:30 104 1 gusting 2 13.3
2017-Mar-23 03:25 103 1 gusting 6 13.3
2017-Mar-23 03:20 103 1 gusting 6 13.3
2017-Mar-23 03:15 100 0 gusting 2 13.3
2017-Mar-23 03:10 100 0 gusting 2 13.3
2017-Mar-23 03:05 100 13.3
2017-Mar-23 03:00 101 13.3
2017-Mar-23 02:55 100 13.3
2017-Mar-23 02:50 100 0 gusting 1 13.3
2017-Mar-23 02:45 098 0 gusting 3 13.3
2017-Mar-23 02:40 093 0 gusting 3 13.3
2017-Mar-23 02:35 087 0 gusting 3 13.3
2017-Mar-23 02:30 083 1 gusting 3 13.3
2017-Mar-23 02:25 086 1 gusting 6 13.3
2017-Mar-23 02:20 090 2 gusting 6 13.3
2017-Mar-23 02:15 094 2 gusting 6 13.3
2017-Mar-23 02:10 090 2 gusting 6 13.3
2017-Mar-23 02:05 095 2 gusting 6 13.3
2017-Mar-23 02:00 099 3 gusting 6 13.3
2017-Mar-23 01:55 089 3 gusting 6 13.3
2017-Mar-23 01:50 092 3 gusting 7 13.3
2017-Mar-23 01:45 085 4 gusting 8 13.3
2017-Mar-23 01:40 073 3 gusting 8 13.3
2017-Mar-23 01:35 085 3 gusting 7 13.3
2017-Mar-23 01:30 094 3 gusting 7 13.3
2017-Mar-23 01:25 088 3 gusting 7 13.3
2017-Mar-23 01:20 077 3 gusting 6 13.3
2017-Mar-23 01:15 069 2 gusting 6 13.3
2017-Mar-23 01:10 077 1 gusting 5 13.3
2017-Mar-23 01:05 119 0 gusting 3 13.3
2017-Mar-23 01:00 131 1 gusting 6 13.3
2017-Mar-23 00:55 146 2 gusting 6 13.3
2017-Mar-23 00:50 150 2 gusting 7 13.3
2017-Mar-23 00:45 135 3 gusting 8 13.3
2017-Mar-23 00:40 109 3 gusting 8 13.3
2017-Mar-23 00:35 090 2 gusting 7 13.3
2017-Mar-23 00:30 072 1 gusting 3 13.3
2017-Mar-23 00:25 069 2 gusting 8 13.3
2017-Mar-23 00:20 058 4 gusting 9 13.3
2017-Mar-23 00:15 046 4 gusting 9 13.3
2017-Mar-23 00:10 035 3 gusting 8 13.9
2017-Mar-23 00:05 041 2 gusting 6 13.9
2017-Mar-23 00:00 053 2 gusting 7 13.9
2017-Mar-22 23:55 050 2 gusting 7 13.9
2017-Mar-22 23:50 043 2 gusting 7 13.9
2017-Mar-22 23:45 053 2 gusting 8 13.9
2017-Mar-22 23:40 106 2 gusting 8 13.9
2017-Mar-22 23:35 118 3 gusting 6 13.9
2017-Mar-22 23:30 110 2 gusting 6 13.9
2017-Mar-22 23:25 138 1 gusting 6 13.9
2017-Mar-22 23:20 158 2 gusting 6 13.3
2017-Mar-22 23:15 166 3 gusting 6 13.3
2017-Mar-22 23:10 165 3 gusting 7 13.3
2017-Mar-22 23:05 169 4 gusting 8 13.9
2017-Mar-22 23:00 168 3 gusting 8 13.9
2017-Mar-22 22:55 145 1 gusting 5 13.9
2017-Mar-22 22:50 106 2 gusting 6 13.9
2017-Mar-22 22:45 075 3 gusting 6 13.9
2017-Mar-22 22:40 073 2 gusting 6 13.9
2017-Mar-22 22:35 090 1 gusting 3 14.4
2017-Mar-22 22:30 090 0 gusting 2 14.4
2017-Mar-22 22:25 090 0 gusting 1 14.4
2017-Mar-22 22:20 090 14.4
2017-Mar-22 22:15 090 0 gusting 2 14.4
2017-Mar-22 22:10 090 0 gusting 3 14.4
2017-Mar-22 22:05 089 1 gusting 5 14.4
2017-Mar-22 22:00 093 1 gusting 5 14.4
2017-Mar-22 21:55 102 0 gusting 5 14.4
2017-Mar-22 21:50 109 0 gusting 2 14.4
2017-Mar-22 21:45 109 0 gusting 3 14.4
2017-Mar-22 21:40 116 1 gusting 5 14.4
2017-Mar-22 21:35 125 1 gusting 5 14.4
2017-Mar-22 21:30 112 1 gusting 4 14.4
2017-Mar-22 21:25 071 1 gusting 6 14.4
2017-Mar-22 21:20 083 1 gusting 6 14.4
2017-Mar-22 21:15 111 1 gusting 6 14.4
2017-Mar-22 21:10 126 1 gusting 6 14.4
2017-Mar-22 21:05 150 1 gusting 3 14.4
2017-Mar-22 21:00 128 1 gusting 3 14.4
2017-Mar-22 20:55 103 1 gusting 7 14.4
2017-Mar-22 20:50 108 3 gusting 7 14.4
2017-Mar-22 20:45 102 4 gusting 9 14.4
2017-Mar-22 20:40 082 3 gusting 9 13.9
2017-Mar-22 20:35 057 3 gusting 6 14.4
2017-Mar-22 20:30 036 3 gusting 6 14.4
2017-Mar-22 20:25 031 3 gusting 7 14.4
2017-Mar-22 20:20 034 3 gusting 9 14.4
2017-Mar-22 20:15 032 4 gusting 9 14.4
2017-Mar-22 20:10 035 4 gusting 12 14.4
2017-Mar-22 20:05 015 5 gusting 12 15.0
2017-Mar-22 20:00 001 4 gusting 9 15.0
2017-Mar-22 19:55 025 1 gusting 9 15.0
2017-Mar-22 19:50 080 0 gusting 3 15.0
2017-Mar-22 19:45 071 0 gusting 3 15.0
2017-Mar-22 19:40 088 0 gusting 5 14.4
2017-Mar-22 19:35 093 2 gusting 7 14.4
2017-Mar-22 19:30 093 3 gusting 7 14.4
2017-Mar-22 19:25 068 3 gusting 6 14.4
2017-Mar-22 19:20 027 2 gusting 6 15.0
2017-Mar-22 19:15 018 2 gusting 7 15.0
2017-Mar-22 19:10 018 3 gusting 7 15.0
2017-Mar-22 19:05 017 3 gusting 6 15.0
2017-Mar-22 19:00 020 3 gusting 6 15.0
2017-Mar-22 18:55 034 3 gusting 6 15.0
2017-Mar-22 18:50 031 3 gusting 7 15.0
2017-Mar-22 18:45 020 5 gusting 9 15.0
2017-Mar-22 18:40 009 5 gusting 11 15.0
2017-Mar-22 18:35 004 5 gusting 11 15.0
2017-Mar-22 18:30 015 4 gusting 10 15.0
2017-Mar-22 18:25 030 5 gusting 9 15.6
2017-Mar-22 18:20 022 5 gusting 9 15.6
2017-Mar-22 18:15 359 4 gusting 8 15.6
2017-Mar-22 18:10 356 4 gusting 8 15.6
2017-Mar-22 18:05 352 4 gusting 8 15.6
2017-Mar-22 18:00 346 4 gusting 8 15.6
2017-Mar-22 17:55 352 4 gusting 7 15.6
2017-Mar-22 17:50 351 4 gusting 8 15.6
2017-Mar-22 17:45 349 4 gusting 8 15.6
2017-Mar-22 17:40 356 5 gusting 8 15.6
2017-Mar-22 17:35 003 5 gusting 9 15.6
2017-Mar-22 17:30 009 5 gusting 9 15.6
2017-Mar-22 17:25 012 4 gusting 9 15.6
2017-Mar-22 17:20 007 5 gusting 10 15.6
2017-Mar-22 17:15 013 5 gusting 10 16.1
2017-Mar-22 17:10 019 4 gusting 8 16.1
2017-Mar-22 17:05 028 3 gusting 8 16.1
2017-Mar-22 17:00 045 4 gusting 8 16.1
2017-Mar-22 16:55 043 4 gusting 9 16.1
2017-Mar-22 16:50 040 5 gusting 10 15.6
2017-Mar-22 16:45 036 5 gusting 10 15.6
2017-Mar-22 16:40 025 5 gusting 10 15.6
2017-Mar-22 16:35 012 5 gusting 10 15.6
2017-Mar-22 16:30 002 5 gusting 10 15.6
2017-Mar-22 16:25 007 5 gusting 10 15.6
2017-Mar-22 16:20 020 4 gusting 9 15.6
2017-Mar-22 16:15 022 4 gusting 9 15.6
2017-Mar-22 16:10 030 4 gusting 9 15.6
2017-Mar-22 16:00 041 5 gusting 12 15.6
2017-Mar-22 15:55 044 6 gusting 13 15.6
2017-Mar-22 15:50 045 7 gusting 13 15.6
2017-Mar-22 15:45 043 6 gusting 13 15.6
2017-Mar-22 15:40 033 6 gusting 13 16.1
2017-Mar-22 15:35 033 6 gusting 12 16.1
2017-Mar-22 15:30 042 6 gusting 12 15.6
2017-Mar-22 15:25 030 6 gusting 13 15.6
2017-Mar-22 15:20 005 6 gusting 13 15.6
2017-Mar-22 15:15 359 6 gusting 14 16.1
2017-Mar-22 15:05 010 7 gusting 13 16.1
2017-Mar-22 15:00 011 7 gusting 13 16.1
2017-Mar-22 14:55 014 6 gusting 13 16.7
2017-Mar-22 14:50 013 6 gusting 11 16.7
2017-Mar-22 14:45 008 6 gusting 10 16.7
2017-Mar-22 14:40 013 6 gusting 10 16.1
2017-Mar-22 14:35 013 5 gusting 10 16.1
2017-Mar-22 14:30 015 5 gusting 11 16.1
2017-Mar-22 14:25 016 5 gusting 11 16.1
2017-Mar-22 14:20 009 6 gusting 10 16.1
2017-Mar-22 14:15 011 5 gusting 10 16.1
2017-Mar-22 14:10 007 5 gusting 11 16.1
2017-Mar-22 14:05 352 6 gusting 12 16.1
2017-Mar-22 14:00 352 5 gusting 12 16.1
2017-Mar-22 13:55 060 2 gusting 8 16.1
2017-Mar-22 13:50 066 2 gusting 6 16.1
2017-Mar-22 13:45 038 4 gusting 10 16.1
2017-Mar-22 13:40 032 3 gusting 10 16.1
2017-Mar-22 13:35 012 2 gusting 7 15.6
2017-Mar-22 13:30 352 2 gusting 7 15.6
2017-Mar-22 13:25 001 1 gusting 6 15.6
2017-Mar-22 13:20 350 0 gusting 5 15.6
2017-Mar-22 13:15 017 1 gusting 5 15.6
2017-Mar-22 13:10 020 3 gusting 8 15.6
2017-Mar-22 13:05 005 4 gusting 8 15.6
2017-Mar-22 13:00 021 5 gusting 8 15.6
2017-Mar-22 12:55 019 6 gusting 11 15.0
2017-Mar-22 12:50 016 5 gusting 11 15.0
2017-Mar-22 12:45 039 5 gusting 10 15.0
2017-Mar-22 12:40 013 6 gusting 13 15.6
2017-Mar-22 12:35 350 7 gusting 13 15.6
2017-Mar-22 12:30 352 6 gusting 12 15.6
2017-Mar-22 12:25 356 6 gusting 12 16.1
2017-Mar-22 12:20 008 6 gusting 12 16.1
2017-Mar-22 12:15 017 5 gusting 9 16.1
2017-Mar-22 12:10 022 4 gusting 10 16.1
2017-Mar-22 12:05 020 4 gusting 10 16.1
2017-Mar-22 12:00 012 4 gusting 8 16.7
2017-Mar-22 11:55 022 4 gusting 8 16.7
2017-Mar-22 11:50 021 5 gusting 9 16.7
2017-Mar-22 11:45 020 5 gusting 10 16.7
2017-Mar-22 11:40 015 4 gusting 10 16.7
2017-Mar-22 11:35 022 3 gusting 9 16.7
2017-Mar-22 11:30 033 3 gusting 7 16.7
2017-Mar-22 11:25 026 4 gusting 8 16.7
2017-Mar-22 11:20 033 4 gusting 8 16.1
2017-Mar-22 11:15 034 4 gusting 8 16.1
2017-Mar-22 11:10 035 4 gusting 9 16.1
2017-Mar-22 11:05 044 3 gusting 9 16.1
2017-Mar-22 11:00 037 3 gusting 10 16.1
2017-Mar-22 10:55 022 3 gusting 10 16.1
2017-Mar-22 10:50 013 4 gusting 8 16.1
2017-Mar-22 10:45 005 5 gusting 9 16.1
2017-Mar-22 10:40 003 4 gusting 9 16.1
2017-Mar-22 10:35 018 3 gusting 7 15.6
2017-Mar-22 10:30 038 3 gusting 6 15.6
2017-Mar-22 10:25 027 4 gusting 8 15.6
2017-Mar-22 10:20 003 4 gusting 8 15.6
2017-Mar-22 10:15 347 4 gusting 7 15.6
2017-Mar-22 10:10 350 4 gusting 7 15.6
2017-Mar-22 10:05 006 3 gusting 6 16.1
2017-Mar-22 10:00 003 3 gusting 5 15.6
2017-Mar-22 09:55 355 3 gusting 8 15.6
2017-Mar-22 09:50 348 4 gusting 9 15.6
2017-Mar-22 09:45 343 5 gusting 9 15.6
2017-Mar-22 09:40 344 5 gusting 9 15.6
2017-Mar-22 09:35 354 4 gusting 9 15.6
2017-Mar-22 09:30 348 4 gusting 8 15.0
2017-Mar-22 09:25 340 3 gusting 8 15.0
2017-Mar-22 09:20 349 3 gusting 7 15.0
2017-Mar-22 09:15 335 2 gusting 5 15.0
2017-Mar-22 09:10 311 1 gusting 4 15.0
2017-Mar-22 09:05 313 1 gusting 3 14.4
2017-Mar-22 09:00 324 0 gusting 3 14.4
2017-Mar-22 08:55 110 0 gusting 3 14.4
2017-Mar-22 08:50 110 0 gusting 3 14.4
2017-Mar-22 08:45 111 0 gusting 3 14.4
2017-Mar-22 08:40 112 0 gusting 3 14.4
2017-Mar-22 08:35 112 0 gusting 2 14.4
2017-Mar-22 08:30 113 14.4
2017-Mar-22 08:25 113 0 gusting 3 14.4
2017-Mar-22 08:20 114 1 gusting 3 14.4
2017-Mar-22 08:15 105 1 gusting 3 14.4
2017-Mar-22 08:10 091 0 gusting 3 13.9
2017-Mar-22 08:05 050 0 gusting 6 13.9
2017-Mar-22 08:00 074 1 gusting 6 13.9
2017-Mar-22 07:55 103 1 gusting 3 13.9
2017-Mar-22 07:50 100 1 gusting 6 13.9
2017-Mar-22 07:45 124 2 gusting 8 13.9
2017-Mar-22 07:40 128 2 gusting 8 13.9
2017-Mar-22 07:35 095 0 gusting 5 13.9
2017-Mar-22 07:30 090 0 gusting 5 13.9
2017-Mar-22 07:25 080 2 gusting 6 13.9
2017-Mar-22 07:20 076 2 gusting 6 13.9
2017-Mar-22 07:15 094 2 gusting 6 13.9
2017-Mar-22 07:10 130 2 gusting 7 13.9
2017-Mar-22 07:05 149 3 gusting 9 13.9
2017-Mar-22 07:00 144 3 gusting 9 13.9
2017-Mar-22 06:55 141 3 gusting 6 13.9
2017-Mar-22 06:50 144 2 gusting 10 13.9
2017-Mar-22 06:45 154 3 gusting 10 13.9
2017-Mar-22 06:40 161 4 gusting 7 13.9
2017-Mar-22 06:35 162 5 gusting 8 13.3
2017-Mar-22 06:30 168 4 gusting 8 13.3
2017-Mar-22 06:25 167 3 gusting 9 13.3
2017-Mar-22 06:20 149 4 gusting 9 13.3
2017-Mar-22 06:15 137 4 gusting 9 13.3
2017-Mar-22 06:10 141 3 gusting 7 13.3
2017-Mar-22 06:05 144 3 gusting 9 13.3
2017-Mar-22 06:00 142 3 gusting 9 13.3
2017-Mar-22 05:55 145 3 gusting 9 13.3
2017-Mar-22 05:50 141 2 gusting 9 13.3
2017-Mar-22 05:45 139 2 gusting 7 13.3
2017-Mar-22 05:40 141 3 gusting 7 13.3
2017-Mar-22 05:35 129 3 gusting 7 13.3
2017-Mar-22 05:30 126 3 gusting 6 13.3
2017-Mar-22 05:25 144 2 gusting 6 13.3
2017-Mar-22 05:20 151 3 gusting 7 13.3
2017-Mar-22 05:15 142 2 gusting 7 13.3
2017-Mar-22 05:10 122 2 gusting 6 13.3
2017-Mar-22 05:05 109 2 gusting 6 13.3
2017-Mar-22 05:00 092 3 gusting 6 13.3
2017-Mar-22 04:55 081 2 gusting 6 13.3
2017-Mar-22 04:50 074 2 gusting 6 13.3
2017-Mar-22 04:45 056 2 gusting 6 13.3
2017-Mar-22 04:40 050 2 gusting 6 13.3
2017-Mar-22 04:35 118 0 gusting 5 13.3
2017-Mar-22 04:30 124 0 gusting 1 13.3
2017-Mar-22 04:25 123 13.9
2017-Mar-22 04:20 123 0 gusting 3 13.9
2017-Mar-22 04:15 129 1 gusting 6 13.9
2017-Mar-22 04:10 137 2 gusting 6 13.9
2017-Mar-22 04:05 139 2 gusting 6 13.3
2017-Mar-22 04:00 144 3 gusting 6 13.3
2017-Mar-22 03:55 122 3 gusting 6 13.3
2017-Mar-22 03:50 074 3 gusting 7 13.3
2017-Mar-22 03:45 085 2 gusting 7 13.3
2017-Mar-22 03:40 116 1 gusting 6 13.3
2017-Mar-22 03:35 115 1 gusting 5 13.3
2017-Mar-22 03:30 112 1 gusting 3 13.3
2017-Mar-22 03:25 112 1 gusting 5 13.9
2017-Mar-22 03:20 112 2 gusting 6 13.9
2017-Mar-22 03:15 103 2 gusting 6 13.9
2017-Mar-22 03:10 090 2 gusting 6 13.9
2017-Mar-22 03:05 086 2 gusting 6 13.9
2017-Mar-22 03:00 086 3 gusting 6 13.9
2017-Mar-22 02:55 078 3 gusting 6 13.9
2017-Mar-22 02:50 070 3 gusting 7 13.9
2017-Mar-22 02:45 057 2 gusting 7 13.9
2017-Mar-22 02:40 053 1 gusting 4 13.9
2017-Mar-22 02:35 088 1 gusting 6 13.9
2017-Mar-22 02:30 108 2 gusting 6 13.9
2017-Mar-22 02:25 128 1 gusting 3 13.9
2017-Mar-22 02:20 128 0 gusting 3 13.9
2017-Mar-22 02:15 140 1 gusting 6 13.9
2017-Mar-22 02:10 143 2 gusting 6 13.9
2017-Mar-22 02:05 135 2 gusting 6 13.3
2017-Mar-22 02:00 126 2 gusting 6 13.3
2017-Mar-22 01:55 143 4 gusting 8 13.3
2017-Mar-22 01:50 161 3 gusting 8 13.3
2017-Mar-22 01:45 167 3 gusting 7 13.3
2017-Mar-22 01:40 161 4 gusting 7 13.3
2017-Mar-22 01:35 146 3 gusting 6 13.3
2017-Mar-22 01:30 122 2 gusting 4 13.3
2017-Mar-22 01:25 120 1 gusting 4 13.3
2017-Mar-22 01:20 118 1 gusting 3 13.3
2017-Mar-22 01:15 118 1 gusting 3 13.3
2017-Mar-22 01:10 118 0 gusting 2 13.3
2017-Mar-22 01:05 129 1 gusting 5 13.3
2017-Mar-22 01:00 146 1 gusting 5 13.3
2017-Mar-22 00:55 169 0 gusting 3 13.9
2017-Mar-22 00:50 169 1 gusting 4 13.9
2017-Mar-22 00:45 169 0 gusting 4 13.9
2017-Mar-22 00:40 170 13.9
2017-Mar-22 00:35 170 13.9
2017-Mar-22 00:30 169 0 gusting 4 13.9
2017-Mar-22 00:25 170 1 gusting 5 13.9
2017-Mar-22 00:20 170 1 gusting 5 13.9
2017-Mar-22 00:15 170 1 gusting 5 13.9
2017-Mar-22 00:10 171 0 gusting 4 13.9
2017-Mar-22 00:05 170 0 gusting 3 13.9
2017-Mar-22 00:00 171 1 gusting 4 13.9
2017-Mar-21 23:55 170 1 gusting 4 13.9
2017-Mar-21 23:50 169 0 gusting 4 13.9
2017-Mar-21 23:45 155 1 gusting 4 13.9
2017-Mar-21 23:40 125 1 gusting 4 13.9
2017-Mar-21 23:35 090 0 gusting 3 13.9
2017-Mar-21 23:30 090 0 gusting 2 13.9
2017-Mar-21 23:25 090 0 gusting 2 13.9
2017-Mar-21 23:20 090 13.9
2017-Mar-21 23:15 090 13.9
2017-Mar-21 23:10 090 13.9
2017-Mar-21 23:05 090 0 gusting 2 13.9
2017-Mar-21 23:00 090 0 gusting 2 13.9
2017-Mar-21 22:55 090 0 gusting 2 13.9
2017-Mar-21 22:50 084 1 gusting 6 13.9
2017-Mar-21 22:45 071 1 gusting 6 13.9
2017-Mar-21 22:40 049 0 gusting 3 13.9
2017-Mar-21 22:35 048 0 gusting 1 13.9
2017-Mar-21 22:30 048 0 gusting 1 13.9
2017-Mar-21 22:25 048 0 gusting 3 13.9
2017-Mar-21 22:20 048 1 gusting 4 13.9
2017-Mar-21 22:15 048 1 gusting 4 13.9
2017-Mar-21 22:10 047 1 gusting 4 13.9
2017-Mar-21 22:05 043 1 gusting 5 13.9
2017-Mar-21 22:00 040 1 gusting 5 14.4
2017-Mar-21 21:55 046 1 gusting 4 14.4
2017-Mar-21 21:50 064 1 gusting 4 14.4
2017-Mar-21 21:45 072 2 gusting 6 14.4
2017-Mar-21 21:40 057 2 gusting 6 14.4
2017-Mar-21 21:35 047 2 gusting 5 14.4
2017-Mar-21 21:30 047 2 gusting 6 14.4
2017-Mar-21 21:25 046 2 gusting 6 14.4
2017-Mar-21 21:20 049 2 gusting 5 14.4
2017-Mar-21 21:15 055 2 gusting 5 14.4
2017-Mar-21 21:10 053 1 gusting 4 14.4
2017-Mar-21 21:05 043 2 gusting 7 14.4
2017-Mar-21 21:00 035 2 gusting 7 14.4
2017-Mar-21 20:55 035 1 gusting 4 14.4
2017-Mar-21 20:50 160 0 gusting 4 14.4
2017-Mar-21 20:45 160 1 gusting 4 14.4
2017-Mar-21 20:40 154 1 gusting 4 14.4
2017-Mar-21 20:35 136 1 gusting 4 14.4
2017-Mar-21 20:30 105 1 gusting 3 14.4
2017-Mar-21 20:25 110 2 gusting 5 14.4
2017-Mar-21 20:20 201 2 gusting 5 14.4
2017-Mar-21 20:15 214 2 gusting 5 14.4
2017-Mar-21 20:10 223 2 gusting 4 14.4
2017-Mar-21 20:05 236 2 gusting 5 14.4
2017-Mar-21 20:00 240 3 gusting 6 14.4
2017-Mar-21 19:55 229 4 gusting 6 14.4
2017-Mar-21 19:50 234 2 gusting 6 14.4
2017-Mar-21 19:45 300 1 gusting 4 14.4
2017-Mar-21 19:40 326 0 gusting 2 14.4
2017-Mar-21 19:35 334 1 gusting 4 14.4
2017-Mar-21 19:30 351 2 gusting 7 14.4
2017-Mar-21 19:25 351 3 gusting 7 14.4
2017-Mar-21 19:20 346 2 gusting 6 14.4
2017-Mar-21 19:15 354 2 gusting 6 14.4
2017-Mar-21 19:10 014 1 gusting 6 14.4
2017-Mar-21 19:05 037 1 gusting 4 14.4
2017-Mar-21 19:00 036 2 gusting 5 14.4
2017-Mar-21 18:55 040 2 gusting 7 14.4
2017-Mar-21 18:50 043 4 gusting 8 14.4
2017-Mar-21 18:45 042 4 gusting 8 14.4
2017-Mar-21 18:40 043 3 gusting 8 14.4
2017-Mar-21 18:35 048 4 gusting 11 14.4
2017-Mar-21 18:30 046 6 gusting 11 14.4
2017-Mar-21 18:25 043 5 gusting 11 14.4
2017-Mar-21 18:20 041 5 gusting 11 14.4
2017-Mar-21 18:15 044 6 gusting 11 14.4
2017-Mar-21 18:10 049 6 gusting 10 14.4
2017-Mar-21 18:05 051 5 gusting 10 14.4
2017-Mar-21 18:00 050 6 gusting 13 14.4
2017-Mar-21 17:55 043 6 gusting 13 14.4
2017-Mar-21 17:50 038 6 gusting 12 15.0
2017-Mar-21 17:45 040 6 gusting 11 15.0
2017-Mar-21 17:40 040 6 gusting 13 15.0
2017-Mar-21 17:35 037 4 gusting 13 15.0
2017-Mar-21 17:30 030 3 gusting 10 15.6
2017-Mar-21 17:25 021 4 gusting 10 15.6
2017-Mar-21 17:20 018 3 gusting 8 15.6
2017-Mar-21 17:15 019 2 gusting 8 15.6
2017-Mar-21 17:10 009 3 gusting 9 15.6
2017-Mar-21 17:05 011 3 gusting 9 15.6
2017-Mar-21 17:00 011 4 gusting 8 15.6
2017-Mar-21 16:55 008 4 gusting 8 15.6
2017-Mar-21 16:50 022 3 gusting 8 15.6
2017-Mar-21 16:45 011 3 gusting 7 15.6
2017-Mar-21 16:40 007 4 gusting 9 15.6
2017-Mar-21 16:35 013 4 gusting 9 15.6
2017-Mar-21 16:30 005 4 gusting 8 15.6
2017-Mar-21 16:25 003 5 gusting 8 15.6
2017-Mar-21 16:20 003 5 gusting 8 15.0
2017-Mar-21 16:15 005 5 gusting 8 15.6
2017-Mar-21 16:10 013 4 gusting 8 15.0
2017-Mar-21 16:05 021 4 gusting 8 15.0
2017-Mar-21 16:00 010 6 gusting 10 15.0
2017-Mar-21 15:55 357 5 gusting 10 15.0
2017-Mar-21 15:50 356 5 gusting 9 15.0
2017-Mar-21 15:45 002 6 gusting 9 15.0
2017-Mar-21 15:40 007 5 gusting 10 15.0
2017-Mar-21 15:35 003 4 gusting 10 15.6
2017-Mar-21 15:30 354 4 gusting 9 15.0
2017-Mar-21 15:25 003 4 gusting 9 15.6
2017-Mar-21 15:20 007 3 gusting 7 15.6
2017-Mar-21 15:15 358 3 gusting 7 15.6
2017-Mar-21 15:10 008 3 gusting 7 15.6
2017-Mar-21 15:05 020 3 gusting 6 15.6
2017-Mar-21 15:00 039 3 gusting 6 15.6
2017-Mar-21 14:55 029 3 gusting 6 15.0
2017-Mar-21 14:50 002 4 gusting 8 15.0
2017-Mar-21 14:45 001 5 gusting 8 15.0
2017-Mar-21 14:40 004 4 gusting 8 15.0
2017-Mar-21 14:35 003 3 gusting 7 15.6
2017-Mar-21 14:30 001 4 gusting 8 15.6
2017-Mar-21 14:25 357 5 gusting 8 15.6
2017-Mar-21 14:20 353 5 gusting 10 15.6
2017-Mar-21 14:15 352 4 gusting 10 15.6
2017-Mar-21 14:10 354 4 gusting 9 15.6
2017-Mar-21 14:05 356 4 gusting 8 15.6
2017-Mar-21 14:00 350 4 gusting 9 15.6
2017-Mar-21 13:55 348 4 gusting 9 15.6
2017-Mar-21 13:50 358 3 gusting 8 15.6
2017-Mar-21 13:45 016 3 gusting 7 15.6
2017-Mar-21 13:40 011 3 gusting 7 15.6
2017-Mar-21 13:35 357 4 gusting 7 15.6
2017-Mar-21 13:30 353 4 gusting 8 15.6
2017-Mar-21 13:25 356 4 gusting 9 15.6
2017-Mar-21 13:20 009 3 gusting 9 15.6
2017-Mar-21 13:15 010 3 gusting 7 16.1
2017-Mar-21 13:10 012 3 gusting 8 15.6
2017-Mar-21 13:05 001 3 gusting 8 16.1
2017-Mar-21 13:00 359 3 gusting 6 16.1
2017-Mar-21 12:55 019 2 gusting 6 15.6
2017-Mar-21 12:50 008 3 gusting 8 15.6
2017-Mar-21 12:45 356 4 gusting 8 15.6
2017-Mar-21 12:40 001 3 gusting 8 15.6
2017-Mar-21 12:35 016 4 gusting 10 15.6
2017-Mar-21 12:30 033 5 gusting 10 15.6
2017-Mar-21 12:25 044 4 gusting 10 15.6
2017-Mar-21 12:20 012 5 gusting 11 15.6
2017-Mar-21 12:15 352 6 gusting 11 15.6
2017-Mar-21 12:10 351 6 gusting 10 15.6
2017-Mar-21 12:05 357 6 gusting 11 15.6
2017-Mar-21 12:00 020 5 gusting 11 15.6
2017-Mar-21 11:55 037 4 gusting 9 15.6
2017-Mar-21 11:50 026 3 gusting 9 15.6
2017-Mar-21 11:45 012 3 gusting 8 15.6
2017-Mar-21 11:40 353 5 gusting 8 15.6
2017-Mar-21 11:35 341 6 gusting 9 15.6
2017-Mar-21 11:30 353 5 gusting 9 15.6
2017-Mar-21 11:25 011 4 gusting 9 15.6
2017-Mar-21 11:20 002 5 gusting 10 15.6
2017-Mar-21 11:15 003 5 gusting 10 15.6
2017-Mar-21 11:10 025 5 gusting 10 15.6
2017-Mar-21 11:05 040 5 gusting 10 15.6
2017-Mar-21 11:00 040 5 gusting 9 15.6
2017-Mar-21 10:55 031 5 gusting 9 16.1
2017-Mar-21 10:50 022 4 gusting 9 16.1
2017-Mar-21 10:45 037 3 gusting 9 16.1
2017-Mar-21 10:40 032 5 gusting 12 16.1
2017-Mar-21 10:35 021 5 gusting 12 15.6
2017-Mar-21 10:30 031 4 gusting 8 15.6
2017-Mar-21 10:25 034 4 gusting 9 15.6
2017-Mar-21 10:20 030 4 gusting 9 15.6